Powrót do katalogu

COSMOS 894

AktywnyMilitariaPO
NORAD 9846·PAYLOAD·🇷🇺 Russia

Wystrzelony Feb 21, 1977 z Plesetsk Cosmodrome

Loading…

Następne Przeloty (najbliższe 24 godziny)

TLE

ŚwieżeSource: Space-Track

Epoka: Sep 13, 2026, 21:08 UTC

1 09846U 77013A   26256.88104299  .00000047  00000-0  34204-4 0  9995
2 09846  82.9448  31.5511 0028970 324.0038 150.4382 13.74214859484357

Śledź COSMOS 894 w czasie rzeczywistym z AllMySat

Download on the App Store